[[{"header":{"parameterUnit":"m.s-1","parameterCategory":1,"la1":30.2991,"la2":30.254,"lo1":-89.0895,"lo2":-89.0444,"dy":0.0017,"dx":0.0017,"nx":28,"ny":28,"refTime":"2025-08-22T21:00:00:Z","depth":0,"parameterNumber":2,"parameterNumberName":"U-component_of_WINDS"},"data":[0,0,0,0,0,0,0,0,0,0,0,0,0,0,0,0,0,0,0,0,0,0,0,0,0,0,0,0,0,0,0,0,0,0,0,0,0,0,0,0,0,0,0,0,0,0,0,0,0,0,0,0,0,0,0,0,0,0,2.2399,2.24,0,2.2448,2.2448,2.2449,2.2448,2.2447,2.2446,2.2446,2.2497,2.2499,2.2501,0,0,0,0,0,0,0,0,0,0,0,0,0,2.2306,2.2308,2.2399,2.24,2.24,2.2448,2.2448,2.2449,2.2448,2.2447,2.2446,2.2445,2.2497,2.2499,2.2501,0,0,0,0,0,0,0,0,0,0,0,0,0,2.235,2.2308,2.2399,2.2405,2.2406,2.2448,2.2448,2.2449,2.2448,2.2447,2.2446,2.2445,2.2496,2.2499,2.2502,2.254,0,0,2.2511,2.2512,0,0,0,0,0,0,0,0,2.2347,2.2353,2.2404,2.2405,2.2406,2.2441,2.2434,2.248,2.2448,2.2432,2.2446,2.2444,2.2479,2.2484,2.2495,2.2543,2.2545,2.2511,2.2513,2.2514,2.2515,0,0,0,0,0,0,0,2.2344,2.2351,2.2418,2.2405,2.2406,2.2406,2.2411,2.2443,2.2461,2.2434,2.2434,2.2439,2.248,2.2492,2.2496,2.2546,2.2511,2.2514,2.2516,2.2517,2.2626,2.2627,0,0,0,0,0,0,2.234,2.2349,2.2417,2.242,2.2374,2.2409,2.2414,2.2431,2.2461,2.2464,2.244,2.2439,2.2487,2.2493,2.2498,2.2544,2.2514,2.2517,2.2519,2.2625,2.2626,2.2627,0,0,0,0,0,0,2.2338,2.2346,2.2415,2.2384,2.2393,2.2411,2.243,2.2432,2.2444,2.2465,2.2469,2.2449,2.2487,2.2494,2.2529,2.2546,2.2518,2.2521,2.2623,2.2625,2.2627,2.2637,0,0,0,0,0,0,2.2335,2.2345,2.236,2.2385,2.2395,2.2445,2.2431,2.2434,2.2449,2.2448,2.2475,2.2478,2.2487,2.2525,2.2532,2.2549,2.2523,2.2622,2.2624,2.2626,2.2635,2.2638,2.2641,0,0,0,0,0,2.2332,2.2362,2.2361,2.2369,2.2413,2.2446,2.2452,2.246,2.2451,2.2465,2.2479,2.2478,2.2543,2.2528,2.2537,2.2555,2.2621,2.2623,2.2626,2.2633,2.2638,2.2641,0,0,0,0,0,0,2.2339,2.2365,2.2364,2.2403,2.2422,2.2446,2.2465,2.2465,2.2488,2.2486,2.2496,2.2502,2.2537,2.255,2.2533,2.2593,2.2581,2.2585,2.2583,2.2588,2.2591,2.2587,2.2526,0,0,0,0,0,2.2345,2.2369,2.2391,2.2423,2.2432,2.2447,2.2461,2.2466,2.2487,2.2495,2.2511,2.2532,2.2557,2.2573,2.2597,2.2637,2.2642,2.2653,2.2657,2.2659,2.2663,2.2683,2.2688,2.2635,2.2635,2.2635,0,0,2.2358,2.2375,2.239,2.2424,2.244,2.2464,2.2454,2.2481,2.2499,2.25,2.2533,2.2546,2.2569,2.2606,2.2624,2.2618,2.2678,2.2662,2.2664,2.2666,2.2686,2.2691,2.2695,2.2637,2.2637,2.2636,0,0,2.2394,2.2409,2.2437,2.2452,2.2476,2.2485,2.2492,2.2515,2.2523,2.2557,2.2557,2.258,2.2623,2.2639,2.2653,2.2693,2.2693,2.2701,2.2718,2.2738,2.2742,2.2746,2.2759,2.2764,2.2705,2.2705,2.2705,0,2.2407,2.2444,2.2451,2.2478,2.2493,2.2493,2.2521,2.2536,2.2566,2.2576,2.257,2.2623,2.2639,2.2679,2.2689,2.27,2.2708,2.2698,2.2741,2.2744,2.2748,2.2761,2.2766,2.2705,2.2705,2.2705,2.2705,0,2.2458,2.2483,2.2503,2.2531,2.2548,2.2575,2.2587,2.2603,2.2606,2.2616,2.265,2.267,2.2697,2.2707,2.2711,2.2748,2.2743,2.2738,2.2726,2.2754,2.2766,2.2771,2.2707,2.2706,2.2706,2.2706,0,0,2.25,2.2531,2.2538,2.255,2.2575,2.2595,2.2622,2.2648,2.2661,2.2682,2.2704,2.274,2.2736,2.2751,2.2757,2.2774,2.2804,2.2767,2.2768,2.2773,2.2844,2.2847,2.2852,2.2803,2.2804,2.2805,2.2842,0,2.2537,2.2584,2.2592,2.2633,2.2656,2.2656,2.268,2.2698,2.2708,2.2729,2.274,2.2765,2.2757,2.2766,2.2784,2.2796,2.2818,2.2794,2.2824,2.2825,2.2817,2.2859,2.2862,2.2896,2.2847,2.2847,2.2848,0,2.2588,2.2608,2.2652,2.2672,2.2682,2.2703,2.2727,2.2747,2.2767,2.2773,2.279,2.2793,2.2821,2.2807,2.2845,2.2828,2.2841,2.2849,2.2851,2.2853,2.2838,2.2862,2.2907,2.2911,2.2856,2.2855,2.2855,0,2.2612,2.2651,2.2682,2.2692,2.2718,2.2732,2.2743,2.2762,2.2777,2.2798,2.2808,2.2832,2.2845,2.2864,2.2873,2.2862,2.291,2.2897,2.2915,2.2915,2.2925,2.2924,2.2971,2.2934,2.2934,2.2934,2.2934,0,2.2653,2.2679,2.2693,2.2712,2.2741,2.2749,2.2778,2.2789,2.2805,2.2826,2.2829,2.2848,2.286,2.2881,2.2888,2.2918,2.2924,2.2929,2.2931,2.2929,2.2928,2.2937,2.2934,2.2935,2.2935,2.2935,2.2935,0,2.2685,2.2696,2.2729,2.275,2.2756,2.2776,2.2794,2.2812,2.2821,2.2848,2.2854,2.2869,2.2894,2.2905,2.2936,2.2941,2.2975,2.2975,2.2967,2.2968,2.2984,2.2982,2.3039,2.3046,2.3005,2.3005,2.3006,0,2.271,2.273,2.2753,2.2766,2.2778,2.28,2.2815,2.2823,2.2838,2.2862,2.2877,2.2902,2.2922,2.2962,2.2975,2.2999,2.2999,2.3017,2.3003,2.2999,2.2998,2.2997,2.2998,2.302,2.302,2.3021,2.3021,0,2.2753,2.2757,2.2777,2.28,2.2817,2.2835,2.2853,2.2864,2.2875,2.2892,2.2917,2.2932,2.2963,2.2987,2.3011,2.3023,2.3024,2.3025,2.303,2.3028,2.3022,2.3024,2.2974,2.3024,2.3024,2.3023,2.3023,2.3023,2.2781,2.2799,2.2817,2.2839,2.2853,2.287,2.2887,2.2898,2.2919,2.2944,2.2948,2.2974,2.2993,2.3025,2.3038,2.3059,2.3054,2.3062,2.3064,2.3065,2.3066,2.3019,2.3063,2.3063,2.3063,2.3063,2.3063,0,2.2823,2.2834,2.2855,2.2879,2.2897,2.2895,2.2915,2.2929,2.2952,2.297,2.2989,2.3017,2.304,2.3055,2.3079,2.3092,2.3093,2.3098,2.3097,2.3099,2.3069,2.3061,2.3097,2.3097,2.3097,2.3097,2.3097,2.3097,2.2847,2.2875,2.2881,2.2916,2.2928,2.2953,2.2964,2.2979,2.2992,2.3023,2.3042,2.3051,2.3068,2.3092,2.3113,2.3117,2.3125,2.313,2.3134,2.3105,2.3101,2.3098,2.3091,2.3132,2.3132,2.3162,2.3162,2.3162]},{"header":{"parameterUnit":"m.s-1","parameterCategory":1,"la1":30.2991,"la2":30.254,"lo1":-89.0895,"lo2":-89.0444,"dy":0.0017,"dx":0.0017,"nx":28,"ny":28,"refTime":"2025-08-22T21:00:00:Z","depth":0,"parameterNumber":3,"parameterNumberName":"V-component_of_WINDS"},"data":[0,0,0,0,0,0,0,0,0,0,0,0,0,0,0,0,0,0,0,0,0,0,0,0,0,0,0,0,0,0,0,0,0,0,0,0,0,0,0,0,0,0,0,0,0,0,0,0,0,0,0,0,0,0,0,0,0,0,2.0652,2.0652,0,2.0608,2.0608,2.0607,2.0611,2.0612,2.0612,2.0613,2.0562,2.0561,2.0559,0,0,0,0,0,0,0,0,0,0,0,0,0,2.0734,2.0733,2.0652,2.0652,2.0651,2.0608,2.0608,2.0607,2.0611,2.0612,2.0613,2.0613,2.0563,2.0561,2.0558,0,0,0,0,0,0,0,0,0,0,0,0,0,2.0695,2.0732,2.0652,2.0648,2.0647,2.0608,2.0608,2.0607,2.0611,2.0612,2.0613,2.0614,2.0564,2.0561,2.0558,2.0519,0,0,2.0549,2.0548,0,0,0,0,0,0,0,0,2.0697,2.0692,2.0649,2.0648,2.0647,2.0616,2.0618,2.0577,2.061,2.0624,2.0613,2.0614,2.0579,2.0575,2.0564,2.0517,2.0514,2.0549,2.0547,2.0546,2.0545,0,0,0,0,0,0,0,2.07,2.0694,2.0635,2.0648,2.0647,2.0647,2.0642,2.061,2.0596,2.0623,2.0623,2.0618,2.0579,2.0567,2.0563,2.0514,2.0549,2.0546,2.0544,2.0543,2.0431,2.043,0,0,0,0,0,0,2.0705,2.0696,2.0636,2.0633,2.0676,2.0644,2.0639,2.0625,2.0597,2.0594,2.0618,2.0619,2.0572,2.0567,2.0561,2.0513,2.0546,2.0543,2.0541,2.0432,2.0431,2.043,0,0,0,0,0,0,2.0706,2.0699,2.0638,2.0665,2.0657,2.0642,2.0626,2.0624,2.0612,2.0593,2.059,2.0609,2.0572,2.0566,2.053,2.0512,2.0541,2.0539,2.0434,2.0432,2.043,2.0417,0,0,0,0,0,0,2.0709,2.07,2.0686,2.0665,2.0656,2.0608,2.0625,2.0622,2.0608,2.0609,2.0583,2.058,2.0573,2.0534,2.0527,2.0508,2.0536,2.0435,2.0433,2.0431,2.0419,2.0415,2.0412,0,0,0,0,0,2.0712,2.0683,2.0685,2.0678,2.0638,2.0607,2.0602,2.0596,2.0606,2.0591,2.0579,2.0581,2.0515,2.0531,2.0522,2.0502,2.0436,2.0434,2.0431,2.0421,2.0416,2.0412,0,0,0,0,0,0,2.07,2.068,2.0682,2.0646,2.0629,2.0608,2.0589,2.0591,2.0568,2.057,2.0562,2.0556,2.052,2.0507,2.0525,2.0463,2.0477,2.0472,2.0472,2.0467,2.0463,2.0466,2.0534,0,0,0,0,0,2.0694,2.0672,2.0655,2.0625,2.0616,2.0604,2.059,2.0587,2.0568,2.056,2.0545,2.0525,2.0499,2.0483,2.0458,2.0418,2.0411,2.04,2.0396,2.0393,2.0389,2.0366,2.036,2.0421,2.0421,2.0421,0,0,2.068,2.0666,2.0652,2.0622,2.0608,2.0584,2.0598,2.0572,2.0553,2.0555,2.0521,2.0509,2.0486,2.0448,2.043,2.0436,2.0371,2.039,2.0388,2.0385,2.0362,2.0357,2.0352,2.0419,2.0419,2.042,0,0,2.0642,2.063,2.0603,2.0589,2.0569,2.0561,2.0555,2.0534,2.0527,2.0493,2.0494,2.0471,2.0428,2.0412,2.0397,2.0354,2.0355,2.0346,2.0326,2.0304,2.0299,2.0295,2.0278,2.0272,2.0342,2.0342,2.0342,0,2.0626,2.0592,2.0588,2.0563,2.0549,2.0552,2.0524,2.051,2.0482,2.0471,2.048,2.0426,2.041,2.0368,2.0357,2.0346,2.0337,2.0348,2.03,2.0296,2.0292,2.0276,2.027,2.0341,2.0342,2.0342,2.0342,0,2.0573,2.0549,2.053,2.0505,2.0489,2.0462,2.0453,2.0437,2.0435,2.0427,2.0391,2.0373,2.0345,2.0335,2.0332,2.0292,2.0296,2.0303,2.0316,2.0285,2.027,2.0264,2.034,2.034,2.0341,2.0341,0,0,2.0525,2.05,2.0492,2.0481,2.0459,2.044,2.0413,2.0387,2.0373,2.0354,2.033,2.0294,2.03,2.0284,2.0279,2.026,2.0226,2.0268,2.0268,2.026,2.0178,2.0173,2.0166,2.0227,2.0226,2.0225,2.018,0,2.0484,2.0438,2.0434,2.0392,2.0369,2.0372,2.0349,2.0332,2.0323,2.0301,2.0291,2.0265,2.0275,2.0266,2.0247,2.0234,2.0209,2.0237,2.0202,2.0201,2.0207,2.0158,2.0152,2.0111,2.0174,2.0173,2.0172,0,2.0429,2.041,2.0366,2.0348,2.0338,2.0317,2.0294,2.0274,2.0254,2.0249,2.0232,2.023,2.0201,2.0217,2.0175,2.0195,2.018,2.0172,2.017,2.0165,2.0184,2.015,2.0097,2.0091,2.0163,2.0164,2.0164,0,2.0397,2.0361,2.033,2.032,2.0298,2.0283,2.0273,2.0255,2.024,2.0219,2.0208,2.0184,2.0169,2.0149,2.0141,2.0154,2.0099,2.0115,2.0092,2.0092,2.0079,2.008,2.0022,2.0072,2.0073,2.0073,2.0073,0,2.035,2.0323,2.0315,2.0296,2.0265,2.0261,2.023,2.022,2.0204,2.0182,2.0183,2.0161,2.0152,2.0128,2.0121,2.0087,2.0081,2.0075,2.0073,2.0074,2.0074,2.0063,2.0065,2.0071,2.0071,2.0072,2.0072,0,2.0308,2.0302,2.0269,2.0252,2.0247,2.0224,2.0209,2.0189,2.0182,2.0153,2.0146,2.0133,2.0106,2.0096,2.0062,2.0057,2.0017,2.0018,2.0024,2.0023,2.0001,2.0003,1.9932,1.9922,1.9981,1.998,1.998,0,2.0278,2.0258,2.0239,2.0225,2.0215,2.0193,2.0178,2.0173,2.0157,2.0134,2.0117,2.0091,2.0069,2.0025,2.0011,1.9985,1.9984,1.9962,1.998,1.9982,1.9982,1.9983,1.9981,1.9957,1.9957,1.9956,1.9956,0,2.0225,2.0224,2.0204,2.0182,2.0165,2.0148,2.0131,2.0119,2.0111,2.0093,2.0066,2.005,2.0016,1.9989,1.9963,1.995,1.9951,1.9951,1.9944,1.9944,1.9947,1.9944,2.0013,1.9952,1.9952,1.9952,1.9953,1.9953,2.0187,2.0169,2.0154,2.0131,2.0118,2.0102,2.0083,2.0074,2.0052,2.0026,2.0024,1.9995,1.9976,1.9941,1.9927,1.9903,1.9909,1.9899,1.9897,1.9894,1.9892,1.9953,1.9898,1.9898,1.9899,1.9899,1.9899,0,2.0133,2.0124,2.0103,2.0081,2.0062,2.0068,2.0049,2.0033,2.0008,1.9991,1.9971,1.9939,1.9913,1.9898,1.9872,1.9855,1.9855,1.9848,1.9849,1.9845,1.9888,1.9897,1.9849,1.9849,1.9849,1.9849,1.9849,1.9849,2.0103,2.0072,2.0069,2.0031,2.0022,1.9995,1.9983,1.9968,1.9955,1.9921,1.99,1.9891,1.9875,1.9847,1.9823,1.9819,1.9809,1.9801,1.9797,1.9838,1.9843,1.9847,1.9855,1.9799,1.9799,1.9756,1.9756,1.9756]}]]